| time (UTC) | temp F | wind direction | speed knots | gust knots | rain 1hr in | rain 24hr in | rain mn in | humidity % | barometer mb |
| 20260505122046 | 66 | 242 | 1.7 | 8.7 | 0.00 | 0.00 | 0.00 | 62 | 1012.3 |
| 20260505121551 | 66 | 227 | 3.5 | 8.7 | 0.00 | 0.00 | 0.00 | 61 | 1012.5 |
| 20260505121046 | 65 | 208 | 1.7 | 7.8 | 0.00 | 0.00 | 0.00 | 62 | 1012.4 |
| 20260505120546 | 65 | 236 | 2.6 | 7.8 | 0.00 | 0.00 | 0.00 | 62 | 1012.4 |
| 20260505120053 | 65 | 260 | 3.5 | 9.6 | 0.00 | 0.00 | 0.00 | 63 | 1012.3 |
| 20260505115549 | 65 | 270 | 3.5 | 9.6 | 0.00 | 0.00 | 0.00 | 63 | 1012.3 |
| 20260505115050 | 64 | 246 | 3.5 | 12.2 | 0.00 | 0.00 | 0.00 | 64 | 1012.2 |
| 20260505114551 | 64 | 0 | 2.6 | 12.2 | 0.00 | 0.00 | 0.00 | 64 | 1012.3 |
| 20260505114050 | 64 | 268 | 2.6 | 13.0 | 0.00 | 0.00 | 0.00 | 64 | 1012.3 |
| 20260505113547 | 63 | 186 | 6.1 | 13.0 | 0.00 | 0.00 | 0.00 | 65 | 1012.2 |
| 20260505113110 | 63 | 241 | 1.7 | 7.8 | 0.00 | 0.00 | 0.00 | 66 | 1012.3 |
| 20260505112547 | 63 | 262 | 2.6 | 7.8 | 0.00 | 0.00 | 0.00 | 66 | 1012.2 |
| 20260505112046 | 63 | 251 | 2.6 | 7.0 | 0.00 | 0.00 | 0.00 | 67 | 1012.3 |
| 20260505111555 | 62 | 221 | 1.7 | 5.2 | 0.00 | 0.00 | 0.00 | 68 | 1012.2 |
| 20260505111049 | 62 | 0 | 0.9 | 7.8 | 0.00 | 0.00 | 0.00 | 69 | 1012.2 |
| 20260505110546 | 62 | 220 | 0.9 | 7.8 | 0.00 | 0.00 | 0.00 | 69 | 1012.0 |
| 20260505102048 | 59 | 0 | 0.0 | 1.7 | 0.00 | 0.00 | 0.00 | 75 | 1011.8 |
| 20260505101555 | 59 | 0 | 0.0 | 0.9 | 0.00 | 0.00 | 0.00 | 74 | 1011.6 |
| 20260505101046 | 59 | 0 | 0.0 | 1.7 | 0.00 | 0.00 | 0.00 | 74 | 1011.6 |
| 20260505100548 | 59 | 0 | 0.0 | 2.6 | 0.00 | 0.00 | 0.00 | 74 | 1011.6 |
| 20260505100053 | 59 | 0 | 0.0 | 2.6 | 0.00 | 0.00 | 0.00 | 74 | 1011.5 |
| 20260505095549 | 59 | 0 | 0.0 | 2.6 | 0.00 | 0.00 | 0.00 | 75 | 1011.5 |
| 20260505095046 | 59 | 214 | 0.9 | 3.5 | 0.00 | 0.00 | 0.00 | 76 | 1011.5 |
| 20260505094550 | 59 | 0 | 0.0 | 3.5 | 0.00 | 0.00 | 0.00 | 77 | 1011.3 |
| 20260505094047 | 58 | 0 | 0.0 | 3.5 | 0.00 | 0.00 | 0.00 | 78 | 1011.5 |
| 20260505093547 | 58 | 0 | 0.9 | 3.5 | 0.00 | 0.00 | 0.00 | 79 | 1011.4 |
| 20260505093054 | 58 | 0 | 0.0 | 1.7 | 0.00 | 0.00 | 0.00 | 80 | 1011.4 |
| 20260505092546 | 58 | 0 | 0.0 | 1.7 | 0.00 | 0.00 | 0.00 | 80 | 1011.3 |
| 20260505092047 | 58 | 248 | 0.0 | 3.5 | 0.00 | 0.00 | 0.00 | 81 | 1011.3 |
| 20260505091608 | 58 | 0 | 0.0 | 3.5 | 0.00 | 0.00 | 0.00 | 81 | 1011.3 |
| 20260505091049 | 57 | 0 | 0.0 | 3.5 | 0.00 | 0.00 | 0.00 | 82 | 1011.4 |
| 20260505090546 | 57 | 0 | 0.0 | 2.6 | 0.00 | 0.00 | 0.00 | 82 | 1011.3 |
| 20260505090051 | 57 | 170 | 0.0 | 2.6 | 0.00 | 0.00 | 0.00 | 83 | 1011.4 |
| 20260505085550 | 57 | 0 | 0.0 | 1.7 | 0.00 | 0.00 | 0.00 | 83 | 1011.4 |
| 20260505085049 | 57 | 0 | 0.0 | 1.7 | 0.00 | 0.00 | 0.00 | 83 | 1011.3 |
| 20260505084553 | 57 | 0 | 0.0 | 0.9 | 0.00 | 0.00 | 0.00 | 82 | 1011.4 |
| 20260505084045 | 57 | 0 | 0.0 | 0.9 | 0.00 | 0.00 | 0.00 | 82 | 1011.4 |
| 20260505083548 | 57 | 0 | 0.0 | 1.7 | 0.00 | 0.00 | 0.00 | 81 | 1011.4 |
| 20260505083049 | 57 | 0 | 0.0 | 1.7 | 0.00 | 0.00 | 0.00 | 81 | 1011.4 |
| 20260505082549 | 58 | 0 | 0.9 | 1.7 | 0.00 | 0.00 | 0.00 | 80 | 1011.5 |
| 20260505082047 | 58 | 197 | 0.0 | 0.9 | 0.00 | 0.00 | 0.00 | 80 | 1011.5 |
| 20260505081600 | 58 | 0 | 0.0 | 1.7 | 0.00 | 0.00 | 0.00 | 79 | 1011.5 |
| 20260505081047 | 58 | 197 | 0.0 | 1.7 | 0.00 | 0.00 | 0.00 | 79 | 1011.5 |
| 20260505080546 | 58 | 0 | 0.0 | 1.7 | 0.00 | 0.00 | 0.00 | 79 | 1011.4 |
| 20260505080108 | 59 | 197 | 0.9 | 1.7 | 0.00 | 0.00 | 0.00 | 78 | 1011.4 |
| 20260505075602 | 59 | 197 | 0.9 | 1.7 | 0.00 | 0.00 | 0.00 | 78 | 1011.4 |
| 20260505075051 | 59 | 0 | 0.0 | 1.7 | 0.00 | 0.00 | 0.00 | 78 | 1011.5 |
| 20260505074602 | 59 | 0 | 0.9 | 1.7 | 0.00 | 0.00 | 0.00 | 77 | 1011.4 |
| 20260505074050 | 60 | 198 | 0.0 | 1.7 | 0.00 | 0.00 | 0.00 | 77 | 1011.4 |
| 20260505073551 | 60 | 0 | 0.0 | 0.0 | 0.00 | 0.00 | 0.00 | 77 | 1011.3 |
| 20260505073056 | 59 | 0 | 0.0 | 0.0 | 0.00 | 0.00 | 0.00 | 77 | 1011.4 |
| 20260505072550 | 59 | 0 | 0.0 | 0.9 | 0.00 | 0.00 | 0.00 | 77 | 1011.3 |
| 20260505072050 | 59 | 0 | 0.0 | 0.9 | 0.00 | 0.00 | 0.00 | 76 | 1011.4 |
| 20260505071603 | 59 | 0 | 0.0 | 1.7 | 0.00 | 0.00 | 0.00 | 76 | 1011.3 |
| 20260505071050 | 59 | 0 | 0.0 | 1.7 | 0.00 | 0.00 | 0.00 | 76 | 1011.3 |
| 20260505070550 | 60 | 0 | 0.9 | 1.7 | 0.00 | 0.00 | 0.00 | 76 | 1011.3 |
| 20260505070052 | 60 | 0 | 0.9 | 1.7 | 0.00 | 0.00 | 0.00 | 76 | 1011.4 |
| 20260505065551 | 59 | 198 | 0.0 | 1.7 | 0.00 | 0.00 | 0.00 | 76 | 1011.4 |
| 20260505065050 | 59 | 198 | 0.0 | 1.7 | 0.00 | 0.00 | 0.00 | 76 | 1011.3 |
| 20260505064555 | 59 | 0 | 0.0 | 1.7 | 0.00 | 0.00 | 0.00 | 76 | 1011.3 |
| 20260505064051 | 59 | 0 | 0.0 | 1.7 | 0.00 | 0.00 | 0.00 | 76 | 1011.3 |
| 20260505063550 | 59 | 198 | 0.0 | 1.7 | 0.00 | 0.00 | 0.00 | 76 | 1011.2 |
| 20260505063119 | 59 | 0 | 0.0 | 1.7 | 0.00 | 0.00 | 0.00 | 75 | 1011.1 |
| 20260505062550 | 59 | 0 | 0.0 | 1.7 | 0.00 | 0.00 | 0.00 | 75 | 1011.3 |
| 20260505062049 | 59 | 0 | 0.0 | 2.6 | 0.00 | 0.00 | 0.00 | 74 | 1011.1 |
| 20260505061636 | 59 | 0 | 0.0 | 2.6 | 0.00 | 0.00 | 0.00 | 74 | 1011.3 |
| 20260505061049 | 60 | 0 | 0.0 | 2.6 | 0.00 | 0.00 | 0.00 | 74 | 1011.3 |
| 20260505060552 | 60 | 0 | 0.0 | 1.7 | 0.00 | 0.00 | 0.00 | 74 | 1011.2 |
| 20260505060103 | 60 | 0 | 0.0 | 0.9 | 0.00 | 0.00 | 0.00 | 73 | 1011.2 |
| 20260505055550 | 60 | 0 | 0.0 | 2.6 | 0.00 | 0.00 | 0.00 | 73 | 1011.3 |
| 20260505055050 | 60 | 0 | 0.0 | 2.6 | 0.00 | 0.00 | 0.00 | 73 | 1011.3 |
| 20260505054606 | 60 | 201 | 0.0 | 1.7 | 0.00 | 0.00 | 0.00 | 73 | 1011.2 |
| 20260505054050 | 60 | 0 | 0.0 | 4.3 | 0.00 | 0.00 | 0.00 | 73 | 1011.3 |
| 20260505053551 | 60 | 0 | 0.0 | 4.3 | 0.00 | 0.00 | 0.00 | 72 | 1011.2 |
| 20260505053059 | 60 | 184 | 0.9 | 4.3 | 0.00 | 0.00 | 0.00 | 72 | 1011.2 |
| 20260505052548 | 60 | 177 | 0.9 | 4.3 | 0.00 | 0.00 | 0.00 | 72 | 1011.2 |
| 20260505052048 | 60 | 0 | 0.9 | 4.3 | 0.00 | 0.00 | 0.00 | 71 | 1011.2 |
| 20260505051612 | 60 | 0 | 0.9 | 4.3 | 0.00 | 0.00 | 0.00 | 71 | 1011.2 |
| 20260505051048 | 60 | 0 | 0.9 | 4.3 | 0.00 | 0.00 | 0.00 | 70 | 1011.2 |
| 20260505050547 | 61 | 189 | 0.0 | 5.2 | 0.00 | 0.00 | 0.00 | 69 | 1011.2 |
| 20260505041552 | 62 | 157 | 1.7 | 6.1 | 0.00 | 0.00 | 0.00 | 64 | 1011.0 |
| 20260505041045 | 62 | 218 | 1.7 | 6.1 | 0.00 | 0.00 | 0.00 | 63 | 1011.1 |
| 20260505040548 | 62 | 224 | 2.6 | 7.8 | 0.00 | 0.00 | 0.00 | 63 | 1011.1 |
| 20260505040100 | 62 | 133 | 2.6 | 7.8 | 0.00 | 0.00 | 0.00 | 62 | 1011.2 |
| 20260505035547 | 62 | 158 | 2.6 | 7.0 | 0.00 | 0.00 | 0.00 | 61 | 1011.1 |
| 20260505035044 | 62 | 238 | 1.7 | 7.0 | 0.00 | 0.00 | 0.00 | 61 | 1011.1 |
| 20260505034553 | 62 | 222 | 1.7 | 7.8 | 0.00 | 0.00 | 0.00 | 60 | 1011.2 |
| 20260505034049 | 63 | 0 | 2.6 | 9.6 | 0.00 | 0.00 | 0.00 | 59 | 1011.1 |
| 20260505033545 | 62 | 0 | 2.6 | 9.6 | 0.00 | 0.00 | 0.00 | 59 | 1011.1 |
| 20260505033056 | 63 | 177 | 1.7 | 6.1 | 0.00 | 0.00 | 0.00 | 58 | 1011.1 |
| 20260505032545 | 63 | 146 | 1.7 | 8.7 | 0.00 | 0.00 | 0.00 | 58 | 1011.1 |
| 20260505032046 | 63 | 159 | 1.7 | 8.7 | 0.00 | 0.00 | 0.00 | 57 | 1011.2 |
| 20260505031558 | 63 | 155 | 1.7 | 6.1 | 0.00 | 0.00 | 0.00 | 56 | 1011.2 |
| 20260505031047 | 63 | 170 | 1.7 | 7.8 | 0.00 | 0.00 | 0.00 | 55 | 1011.2 |
| 20260505030548 | 63 | 161 | 1.7 | 7.8 | 0.00 | 0.00 | 0.00 | 55 | 1011.2 |
| 20260505030052 | 63 | 161 | 2.6 | 7.0 | 0.00 | 0.00 | 0.00 | 54 | 1011.1 |
| 20260505025545 | 64 | 118 | 1.7 | 7.0 | 0.00 | 0.00 | 0.00 | 53 | 1011.2 |
| 20260505025047 | 64 | 173 | 1.7 | 7.0 | 0.00 | 0.00 | 0.00 | 52 | 1011.3 |
| 20260505024556 | 64 | 188 | 0.9 | 7.8 | 0.00 | 0.00 | 0.00 | 52 | 1011.2 |
| 20260505024046 | 65 | 193 | 2.6 | 8.7 | 0.00 | 0.00 | 0.00 | 51 | 1011.4 |
| 20260505023548 | 65 | 171 | 3.5 | 8.7 | 0.00 | 0.00 | 0.00 | 51 | 1011.3 |
| 20260505023056 | 65 | 154 | 3.5 | 8.7 | 0.00 | 0.00 | 0.00 | 51 | 1011.4 |
| 20260505022545 | 65 | 155 | 3.5 | 8.7 | 0.00 | 0.00 | 0.00 | 50 | 1011.5 |
| 20260505022049 | 65 | 223 | 1.7 | 8.7 | 0.00 | 0.00 | 0.00 | 50 | 1011.4 |
| 20260505021557 | 65 | 167 | 2.6 | 8.7 | 0.00 | 0.00 | 0.00 | 49 | 1011.3 |
| 20260505021044 | 65 | 188 | 1.7 | 5.2 | 0.00 | 0.00 | 0.00 | 49 | 1011.3 |
| 20260505020545 | 65 | 171 | 0.9 | 7.8 | 0.00 | 0.00 | 0.00 | 49 | 1011.4 |
| 20260505020104 | 65 | 184 | 1.7 | 7.8 | 0.00 | 0.00 | 0.00 | 48 | 1011.3 |
| 20260505015546 | 65 | 220 | 2.6 | 7.8 | 0.00 | 0.00 | 0.00 | 48 | 1011.3 |
| 20260505015049 | 65 | 229 | 1.7 | 7.8 | 0.00 | 0.00 | 0.00 | 48 | 1011.4 |
| 20260505014557 | 66 | 163 | 2.6 | 7.8 | 0.00 | 0.00 | 0.00 | 47 | 1011.2 |
| 20260505014048 | 66 | 150 | 0.9 | 7.8 | 0.00 | 0.00 | 0.00 | 46 | 1011.2 |
| 20260505013550 | 66 | 0 | 2.6 | 7.8 | 0.00 | 0.00 | 0.00 | 46 | 1011.3 |
| 20260505013104 | 66 | 225 | 2.6 | 7.0 | 0.00 | 0.00 | 0.00 | 46 | 1011.3 |
| 20260505012550 | 66 | 185 | 1.7 | 6.1 | 0.00 | 0.00 | 0.00 | 46 | 1011.2 |
| 20260505012053 | 66 | 171 | 0.9 | 6.1 | 0.00 | 0.00 | 0.00 | 46 | 1011.1 |
| 20260505011557 | 66 | 187 | 0.9 | 7.0 | 0.00 | 0.00 | 0.00 | 46 | 1011.1 |
| 20260505011051 | 66 | 153 | 1.7 | 7.0 | 0.00 | 0.00 | 0.00 | 46 | 1011.0 |
| 20260505010551 | 66 | 0 | 1.7 | 5.2 | 0.00 | 0.00 | 0.00 | 46 | 1011.0 |
| 20260505010112 | 66 | 0 | 0.0 | 5.2 | 0.00 | 0.00 | 0.00 | 47 | 1011.0 |
| 20260505005551 | 67 | 244 | 1.7 | 4.3 | 0.00 | 0.00 | 0.00 | 48 | 1010.8 |
| 20260505005050 | 67 | 217 | 1.7 | 7.8 | 0.00 | 0.00 | 0.00 | 48 | 1010.7 |
| 20260505004556 | 67 | 142 | 2.6 | 7.8 | 0.00 | 0.00 | 0.00 | 48 | 1010.8 |
| 20260505004049 | 68 | 157 | 1.7 | 7.0 | 0.00 | 0.00 | 0.00 | 47 | 1010.8 |
| 20260505003547 | 68 | 179 | 1.7 | 5.2 | 0.00 | 0.00 | 0.00 | 46 | 1010.8 |
| 20260505003057 | 68 | 0 | 0.9 | 5.2 | 0.00 | 0.00 | 0.00 | 44 | 1010.8 |
| 20260505002547 | 68 | 182 | 1.7 | 7.0 | 0.00 | 0.00 | 0.00 | 44 | 1010.7 |
| 20260505002049 | 68 | 175 | 1.7 | 7.0 | 0.00 | 0.00 | 0.00 | 44 | 1010.7 |
| 20260505001600 | 69 | 242 | 1.7 | 7.0 | 0.00 | 0.00 | 0.00 | 44 | 1010.7 |
| 20260505001050 | 69 | 218 | 0.9 | 7.8 | 0.00 | 0.00 | 0.00 | 43 | 1010.7 |
| 20260505000551 | 69 | 0 | 1.7 | 7.8 | 0.00 | 0.00 | 0.00 | 43 | 1010.8 |
| 20260505000057 | 69 | 213 | 2.6 | 6.1 | 0.00 | 0.00 | 0.00 | 42 | 1010.6 |
| 20260504235548 | 70 | 221 | 0.9 | 6.1 | 0.00 | 0.00 | 0.00 | 42 | 1010.7 |
| 20260504235048 | 70 | 213 | 1.7 | 6.1 | 0.00 | 0.00 | 0.00 | 41 | 1010.5 |
| 20260504234554 | 70 | 217 | 1.7 | 6.1 | 0.00 | 0.00 | 0.00 | 41 | 1010.6 |
| 20260504234048 | 71 | 221 | 2.6 | 6.1 | 0.00 | 0.00 | 0.00 | 41 | 1010.6 |
| 20260504233548 | 71 | 219 | 0.9 | 5.2 | 0.00 | 0.00 | 0.00 | 41 | 1010.5 |
| 20260504233107 | 71 | 191 | 0.9 | 5.2 | 0.00 | 0.00 | 0.00 | 40 | 1010.6 |
| 20260504232552 | 72 | 171 | 1.7 | 5.2 | 0.00 | 0.00 | 0.00 | 39 | 1010.6 |
| 20260504232047 | 72 | 0 | 0.9 | 4.3 | 0.00 | 0.00 | 0.00 | 38 | 1010.6 |
| 20260504231552 | 73 | 202 | 0.9 | 7.0 | 0.00 | 0.00 | 0.00 | 37 | 1010.5 |
| 20260504231049 | 73 | 168 | 1.7 | 7.0 | 0.00 | 0.00 | 0.00 | 36 | 1010.5 |
| 20260504230549 | 73 | 221 | 2.6 | 7.8 | 0.00 | 0.00 | 0.00 | 35 | 1010.5 |
| 20260504230059 | 73 | 215 | 2.6 | 8.7 | 0.00 | 0.00 | 0.00 | 35 | 1010.4 |
| 20260504225549 | 73 | 270 | 2.6 | 8.7 | 0.00 | 0.00 | 0.00 | 35 | 1010.5 |
| 20260504225048 | 73 | 295 | 3.5 | 8.7 | 0.00 | 0.00 | 0.00 | 35 | 1010.6 |
| 20260504224554 | 73 | 207 | 3.5 | 8.7 | 0.00 | 0.00 | 0.00 | 35 | 1010.4 |
| 20260504224048 | 74 | 240 | 2.6 | 10.4 | 0.00 | 0.00 | 0.00 | 35 | 1010.6 |
| 20260504223549 | 74 | 170 | 4.3 | 10.4 | 0.00 | 0.00 | 0.00 | 34 | 1010.3 |
| 20260504223055 | 74 | 197 | 4.3 | 9.6 | 0.00 | 0.00 | 0.00 | 35 | 1010.5 |
| 20260504222548 | 74 | 252 | 4.3 | 8.7 | 0.00 | 0.00 | 0.00 | 34 | 1010.5 |
| 20260504222048 | 74 | 284 | 3.5 | 9.6 | 0.00 | 0.00 | 0.00 | 34 | 1010.5 |
| 20260504221556 | 74 | 179 | 3.5 | 9.6 | 0.00 | 0.00 | 0.00 | 35 | 1010.5 |
| 20260504221049 | 74 | 254 | 3.5 | 9.6 | 0.00 | 0.00 | 0.00 | 34 | 1010.6 |
| 20260504220548 | 74 | 174 | 4.3 | 11.3 | 0.00 | 0.00 | 0.00 | 34 | 1010.6 |
| 20260504220058 | 74 | 289 | 4.3 | 11.3 | 0.00 | 0.00 | 0.00 | 33 | 1010.6 |
| 20260504215550 | 74 | 281 | 3.5 | 13.9 | 0.00 | 0.00 | 0.00 | 34 | 1010.6 |
| 20260504215048 | 74 | 240 | 3.5 | 13.9 | 0.00 | 0.00 | 0.00 | 34 | 1010.6 |
| 20260504214557 | 74 | 207 | 3.5 | 13.9 | 0.00 | 0.00 | 0.00 | 34 | 1010.6 |
| 20260504214049 | 74 | 263 | 2.6 | 11.3 | 0.00 | 0.00 | 0.00 | 33 | 1010.6 |
| 20260504213547 | 74 | 195 | 6.1 | 12.2 | 0.00 | 0.00 | 0.00 | 33 | 1010.6 |
| 20260504213055 | 74 | 309 | 5.2 | 12.2 | 0.00 | 0.00 | 0.00 | 33 | 1010.7 |
| 20260504212550 | 74 | 294 | 3.5 | 9.6 | 0.00 | 0.00 | 0.00 | 34 | 1010.7 |
| 20260504212050 | 74 | 288 | 2.6 | 12.2 | 0.00 | 0.00 | 0.00 | 34 | 1010.6 |
| 20260504211554 | 74 | 300 | 5.2 | 12.2 | 0.00 | 0.00 | 0.00 | 34 | 1010.7 |
| 20260504211050 | 74 | 223 | 4.3 | 12.2 | 0.00 | 0.00 | 0.00 | 34 | 1010.7 |
| 20260504210549 | 74 | 200 | 5.2 | 12.2 | 0.00 | 0.00 | 0.00 | 33 | 1010.7 |
| 20260504210107 | 74 | 265 | 5.2 | 12.2 | 0.00 | 0.00 | 0.00 | 32 | 1010.5 |
| 20260504205548 | 74 | 281 | 4.3 | 12.2 | 0.00 | 0.00 | 0.00 | 34 | 1010.7 |
| 20260504205048 | 74 | 241 | 4.3 | 8.7 | 0.00 | 0.00 | 0.00 | 33 | 1010.4 |
| 20260504204609 | 74 | 267 | 5.2 | 10.4 | 0.00 | 0.00 | 0.00 | 33 | 1010.4 |
| 20260504204047 | 74 | 206 | 2.6 | 10.4 | 0.00 | 0.00 | 0.00 | 36 | 1010.7 |
| 20260504203551 | 74 | 278 | 3.5 | 9.6 | 0.00 | 0.00 | 0.00 | 34 | 1010.7 |
| 20260504203107 | 73 | 245 | 4.3 | 11.3 | 0.00 | 0.00 | 0.00 | 35 | 1010.6 |
| 20260504202551 | 73 | 287 | 3.5 | 13.0 | 0.00 | 0.00 | 0.00 | 36 | 1010.7 |
| 20260504202049 | 73 | 245 | 5.2 | 13.0 | 0.00 | 0.00 | 0.00 | 34 | 1010.7 |
| 20260504201558 | 73 | 254 | 6.1 | 13.0 | 0.00 | 0.00 | 0.00 | 37 | 1011.0 |
| 20260504201053 | 73 | 298 | 5.2 | 11.3 | 0.00 | 0.00 | 0.00 | 34 | 1011.1 |
| 20260504200549 | 73 | 296 | 2.6 | 9.6 | 0.00 | 0.00 | 0.00 | 36 | 1011.1 |
| 20260504195549 | 73 | 243 | 4.3 | 10.4 | 0.00 | 0.00 | 0.00 | 34 | 1011.3 |
| 20260504195049 | 72 | 194 | 6.1 | 12.2 | 0.00 | 0.00 | 0.00 | 35 | 1011.4 |
| 20260504194602 | 72 | 297 | 5.2 | 13.0 | 0.00 | 0.00 | 0.00 | 36 | 1011.4 |
| 20260504194049 | 73 | 245 | 4.3 | 13.0 | 0.00 | 0.00 | 0.00 | 35 | 1011.4 |
| 20260504193549 | 72 | 255 | 5.2 | 13.0 | 0.00 | 0.00 | 0.00 | 36 | 1011.5 |
| 20260504193059 | 72 | 267 | 3.5 | 13.0 | 0.00 | 0.00 | 0.00 | 36 | 1011.5 |
| 20260504192550 | 72 | 273 | 4.3 | 12.2 | 0.00 | 0.00 | 0.00 | 35 | 1011.6 |
| 20260504192049 | 72 | 255 | 5.2 | 12.2 | 0.00 | 0.00 | 0.00 | 37 | 1011.6 |
| 20260504191554 | 72 | 269 | 6.1 | 12.2 | 0.00 | 0.00 | 0.00 | 37 | 1011.7 |
| 20260504191050 | 72 | 263 | 4.3 | 11.3 | 0.00 | 0.00 | 0.00 | 36 | 1011.7 |
| 20260504190550 | 72 | 244 | 4.3 | 10.4 | 0.00 | 0.00 | 0.00 | 36 | 1011.8 |
| 20260504190121 | 72 | 238 | 4.3 | 11.3 | 0.00 | 0.00 | 0.00 | 39 | 1011.7 |
| 20260504185549 | 72 | 258 | 2.6 | 11.3 | 0.00 | 0.00 | 0.00 | 36 | 1011.8 |
| 20260504185049 | 72 | 284 | 4.3 | 12.2 | 0.00 | 0.00 | 0.00 | 36 | 1011.9 |
| 20260504184553 | 71 | 290 | 6.1 | 12.2 | 0.00 | 0.00 | 0.00 | 35 | 1011.9 |
| 20260504184050 | 72 | 288 | 3.5 | 11.3 | 0.00 | 0.00 | 0.00 | 35 | 1012.0 |
| 20260504183551 | 72 | 209 | 4.3 | 11.3 | 0.00 | 0.00 | 0.00 | 34 | 1012.0 |
| 20260504183054 | 72 | 301 | 3.5 | 9.6 | 0.00 | 0.00 | 0.00 | 36 | 1012.0 |
| 20260504182549 | 72 | 295 | 2.6 | 8.7 | 0.00 | 0.00 | 0.00 | 37 | 1012.2 |
| 20260504182049 | 72 | 220 | 3.5 | 8.7 | 0.00 | 0.00 | 0.00 | 37 | 1012.4 |
| 20260504181555 | 72 | 263 | 1.7 | 8.7 | 0.00 | 0.00 | 0.00 | 36 | 1012.4 |
| 20260504181049 | 71 | 275 | 2.6 | 9.6 | 0.00 | 0.00 | 0.00 | 36 | 1012.5 |
| 20260504180551 | 71 | 232 | 3.5 | 9.6 | 0.00 | 0.00 | 0.00 | 36 | 1012.6 |
| 20260504180051 | 71 | 269 | 3.5 | 9.6 | 0.00 | 0.00 | 0.00 | 38 | 1012.6 |
| 20260504175552 | 71 | 338 | 2.6 | 9.6 | 0.00 | 0.00 | 0.00 | 40 | 1012.6 |
| 20260504175049 | 71 | 259 | 3.5 | 7.8 | 0.00 | 0.00 | 0.00 | 37 | 1012.8 |
| 20260504174558 | 70 | 351 | 2.6 | 7.8 | 0.00 | 0.00 | 0.00 | 39 | 1012.8 |
| 20260504174049 | 70 | 263 | 2.6 | 8.7 | 0.00 | 0.00 | 0.00 | 37 | 1012.9 |
| 20260504173551 | 69 | 325 | 4.3 | 10.4 | 0.00 | 0.00 | 0.00 | 34 | 1012.8 |
| 20260504173052 | 69 | 321 | 5.2 | 10.4 | 0.00 | 0.00 | 0.00 | 35 | 1013.0 |
| 20260504172550 | 70 | 286 | 2.6 | 11.3 | 0.00 | 0.00 | 0.00 | 39 | 1013.0 |
| 20260504172050 | 69 | 324 | 4.3 | 11.3 | 0.00 | 0.00 | 0.00 | 38 | 1013.1 |
| 20260504171553 | 69 | 279 | 3.5 | 10.4 | 0.00 | 0.00 | 0.00 | 37 | 1013.2 |
| 20260504171051 | 69 | 211 | 2.6 | 10.4 | 0.00 | 0.00 | 0.00 | 39 | 1013.3 |
| 20260504170549 | 69 | 285 | 5.2 | 8.7 | 0.00 | 0.00 | 0.00 | 35 | 1013.3 |
| 20260504151049 | 65 | 281 | 3.5 | 7.8 | 0.00 | 0.00 | 0.00 | 46 | 1014.5 |
| 20260504150547 | 65 | 277 | 3.5 | 9.6 | 0.00 | 0.00 | 0.00 | 46 | 1014.5 |
| 20260504141049 | 62 | 277 | 3.5 | 8.7 | 0.00 | 0.00 | 0.00 | 55 | 1014.5 |
| 20260504140549 | 62 | 294 | 3.5 | 10.4 | 0.00 | 0.00 | 0.00 | 55 | 1014.5 |
| 20260504130622 | 59 | 284 | 5.2 | 11.3 | 0.00 | 0.00 | 0.00 | 59 | 1015.0 |